Location: Unspecified
(0.0000°N, 0.0000°E)
Time: 17:32:00
(UTC+00:00)

Vanguard 1 - Pass Details

Date: 10 December 2017
Orbit: 649 x 3834 km, 34.3° (Epoch: 18 January)

Event Time Altitude Azimuth Distance (km) Brightness Sun altitude
Rises 02:28:33 0° 212° (SSW) 5,652 14.0 -45.7°
Reaches altitude 10° 02:33:30 10° 196° (SSW) 5,180 13.8 -44.7°
Maximum altitude 02:44:56 21° 151° (SSE) 5,245 14.1 -42.3°
Drops below altitude 10° 02:59:43 10° 109° (ESE) 6,857 15.0 -39.1°
Sets 03:07:53 0° 95° (E) 7,975 15.5 -37.4°
